DECAYED

OBJECT S, 59114 (Decayed)

Orbit data source: Space-Track

You're viewing an Uncataloged Satellite

Recently launched and/or uncataloged satellites may have evolving metadata. Metadata may include but not limited to: Owner, Maufacturer, Bus, Motor, and Mission.

OBJECT S, 59114 was a satellite in LEO that was launched on Mon, 04 Mar 2024 UTC via an FALCON 9 launch vehicle from the Air Force Western Test Range (AFWTR). Unknown objects in Earth's orbit typically refer to objects detected orbiting the Earth but have not yet been identified or cataloged. These objects could be anything from previously untracked satellites, spent rocket stages, debris from satellite collisions, or even natural meteoroids temporarily captured by Earth's gravity. This object's orbit decayed before it could be identified.

Not visible in the next 10 days
Identifier
59114, 2024-043S
Orbit
Decayed
Country
Flag of TBDTBD
Related business
None
Manufacturer
Unknown
Mission
Decayed Commercial Weather
Bus & Motor
Unknown
Mass
Unknown
Launch date (UTC)
2024-03-04 (2 years ago)
Launch vehicle
FALCON 9
Launch site
Air Force Western Test Range (AFWTR)
Object type
Unknown
Shape & HBR
Box, 0.1 m
Radar Cross Section
0.015 m², Medium (>0.1 m² and < 1m²)

Expand to show TLE details & history
Last TLE update: 1 week ago

TLE from 1 week ago
0 OBJECT S
1 59114U 24043S   25286.11986424  .14632517  26386-5  31545-3 0  9991
2 59114  97.4881  71.6870 0010882 268.4764  91.5291 16.46006277 90379
Epoch: 2025-10-13T02:52Z
TLE epoch observation values (Epoch: 2025-10-13T02:52:36.270Z)
Latitude
-0.00009°
Longitude
6.60867°
Altitude
153.327 km
Speed
7.814 km/s
True Right ascension
04h 46m 44s
True Declination
0° 00' 00"
Sunlit
Object was in full shadow at epoch
Visualization orbit readout
Latitude
Unknown
Longitude
Unknown
Altitude
Unknown
Speed
Unknown
Apparent Right ascension
Unknown
Apparent Declination
Unknown
Sunlit
N/A
Visualization observer readout
Local Sidereal Time
07:11:07
Azimuth
Unknown
Elevation
Unknown
Doppler factor
Unknown
Orbital elements
Apogee altitude
153.778 km
Perigee altitude
139.577 km
Semi-major axis
6,524.814 km
Eccentricity
0.00109
Inclination
97.4881°
RAAN
71.687°
Arg. of periapsis
268.4764°
True anomaly
91.65375°
Mean anomaly
91.5291°
Eccentric anomaly
91.59143°
Mean motion
4.11804 °/min
Orbital period
87.42 mins
BSTAR
0.00031545
Loading maneuver chart data...
Computing Atmospheric mass density...
Loading historical data...
Loading historical data...
Loading historical data...
Loading historical data...
Loading historical data...
Loading historical data...
Loading historical data...

Documentation

Showing up to 5 results
|